Weather in Iskitim

Russia / Novosibirsk Oblast     54°38′33″N   83°18′22″E
temp.,
°C
wind,
m/s
gust,
m/s
humid.,
%
clouds,
%
prec.,
mm/h
press.,
hPa
HPBL,
m
2 march, tue
tue201:00−11nne2396100 1.3 1010104
04:00−13n2296100 0.3 101131
07:00−14nnw129697 0.4 101325
10:00−14nw129598 0.1 1014128
13:00−12w239297 0.2 1015294
16:00−12wsw2392100 0.1 1015312
19:00−14wnw119697 0.1 101620
22:00−16ssw119879 0.1 101720
3 march, wed
wed301:00−17ssw129987 0.1 101720
04:00−17sw1299100 0.1 101720
07:00−17sw129799 0.1 101934
10:00−15sw239588 0.1 1020177
13:00−12sw349093 0.2 1020380
16:00−10ssw3590100 0.1 1020507
19:00−13ssw3494100 0.1 102170
22:00−15s359693 0.0 102390
4 march, thu
thu401:00−15s499681 0.0 1023197
04:00−15s5129597 0.0 1022321
07:00−13s6139399 0.1 1022489
10:00−10s61487100 0.1 1021629
13:00−7ssw81486100 0.1 1021669
16:00−5ssw81493100 0.5 1019733
19:00−5ssw61491100 1.0 1019774
22:00−5ssw71585100 0.4 1018664
5 march, fri
fri501:00−6s61486100 0.4 1017541
04:00−8s51486100 0.0 1015443
07:00−8s5148597 0.0 1014424
10:00−6s51285100 0.0 1013603
13:00−4ssw61095100 1.8 1012774
16:00−3wsw61096100 1.6 1013748
19:00−4wsw61292100 2.1 1017592
22:00−8sw6159038 0.0 1020503
6 march, sat
sat601:00−8ssw8178566 0.0 1021735
04:00−7ssw91786100 0.0 1019865
07:00−8sw91786100 0.1 1019791
10:00−8sw91686100 0.0 1019808
13:00−7sw91592100 0.4 1019829
16:00−5sw81488100 0.3 1019837
19:00−6sw81494100 0.6 1019796
22:00−6sw61489100 0.4 1020688